This is the latest recevied weather packets stored in our database for station/object K2YYD-2. If no packets are shown the sender has not sent any weather packets the latest 10 day(s).
| Time | Temp. | Humidity | Pressure | Rain* | Wind** | Luminosity | Snow |
|---|---|---|---|---|---|---|---|
| 1778175796 | 16.67° C | 41% | 1005.2 hPa | 0 mm | - | 211 W/m² | - |
| 1778175676 | 16.67° C | 43% | 1005.2 hPa | 0 mm | - | 531 W/m² | - |
| 1778175556 | 16.67° C | 42% | 1005.2 hPa | 0 mm | - | 388 W/m² | - |
| 1778175435 | 16.67° C | 41% | 1005.2 hPa | 0 mm | - | 630 W/m² | - |
| 1778175315 | 16.67° C | 44% | 1005.3 hPa | 0 mm | - | 453 W/m² | - |
| 1778175196 | 16.67° C | 41% | 1005.3 hPa | 0 mm | - | 581 W/m² | - |
| 1778175076 | 16.67° C | 40% | 1005.4 hPa | 0 mm | - | 338 W/m² | - |
| 1778174956 | 16.67° C | 43% | 1005.5 hPa | 0 mm | - | 213 W/m² | - |
| 1778174835 | 16.67° C | 41% | 1005.5 hPa | 0 mm | - | 290 W/m² | - |
| 1778174764 | 16.67° C | 41% | 1005.6 hPa | 0 mm | - | 298 W/m² | - |
| 1778174596 | 16.67° C | 41% | 1005.6 hPa | 0 mm | - | 524 W/m² | - |
| 1778174473 | 16.67° C | 41% | 1005.6 hPa | 0 mm | - | 431 W/m² | - |
| 1778174353 | 16.11° C | 42% | 1005.5 hPa | 0 mm | - | 499 W/m² | - |
| 1778174232 | 16.11° C | 43% | 1005.6 hPa | 0 mm | - | 482 W/m² | - |
| 1778174110 | 16.11° C | 43% | 1005.6 hPa | 0 mm | - | 600 W/m² | - |
| 1778173989 | 16.11° C | 44% | 1005.6 hPa | 0 mm | - | 685 W/m² | - |
| 1778173869 | 16.11° C | 43% | 1005.6 hPa | 0 mm | - | 342 W/m² | - |
| 1778173747 | 16.11° C | 43% | 1005.6 hPa | 0 mm | - | 648 W/m² | - |
| 1778173628 | 16.11° C | 45% | 1005.6 hPa | 0 mm | - | 494 W/m² | - |
| 1778173507 | 16.67° C | 44% | 1005.7 hPa | 0 mm | - | 508 W/m² | - |
| 1778173387 | 16.67° C | 43% | 1005.7 hPa | 0 mm | - | 568 W/m² | - |
| 1778173267 | 16.67° C | 44% | 1005.7 hPa | 0 mm | - | 541 W/m² | - |
| 1778173147 | 16.67° C | 44% | 1005.7 hPa | 0 mm | - | 471 W/m² | - |
| 1778173024 | 16.67° C | 43% | 1005.7 hPa | 0 mm | - | 573 W/m² | - |
| 1778172904 | 16.67° C | 45% | 1005.8 hPa | 0 mm | - | 688 W/m² | - |
* Rain latest hour (hover to see other rain measurements)
** Current wind speed in m/s (hover to see current wind gust speed)